Location: ?????
(32.7281°N, 34.9563°E)
Time: 18:21:51
(UTC+00:00)

Cosmos 1417 Rocket - Pass Details

Date: 29 October 2020
Orbit: 952 x 998 km, 83.0° (Epoch: 30 November)

Event Time Altitude Azimuth Distance (km) Brightness Sun altitude
Rises 15:34:24 0° 176° (S) 3,646 7.6 -9.6°
Reaches altitude 10° 15:36:54 10° 174° (S) 2,709 6.9 -10.1°
Maximum altitude 15:43:03 67° 93° (E) 1,061 4.5 -11.4°
Drops below altitude 10° 15:49:18 10° 12° (NNE) 2,754 6.7 -12.7°
Sets 15:51:51 0° 10° (N) 3,711 7.4 -13.2°
